Temp
14 14 15 15 15 15 15 15 15 15 15 15 15 15 15 15 15 15 15 15 15 15 15 15 15 14 14 14 14 14 14 13 13 13 13 13 13 13 13 13 12 12 12 12 12 11 11 11 11 11 11 11 11 11 11 11 10 10 10 10 10 10 10 10 9 9 9 9 9
15 15 15 15 15 15 15 15 15 15 15 15 15 15 15 15 15 15 15 15 15 15 15 15 14 14 14 14 14 13 13 13 13 13 13 13 13 13 13 12 12 12 12 12 11 11 11 11 11 11 11 11 11 11 11 10 10 10 10 10 10 10 9 9 9 9 9 9 9
15 15 15 15 15 15 15 16 16 16 16 15 15 15 15 15 15 15 15 15 15 15 14 14 14 14 14 13 13 13 13 13 13 13 13 13 13 12 12 12 12 12 12 12 11 11 11 11 11 11 11 11 11 11 11 10 10 10 10 10 10 9 9 9 9 9 9 9 9
15 15 15 15 15 16 16 16 16 16 16 15 15 15 15 15 15 15 15 15 14 14 14 14 14 14 14 13 13 13 13 13 13 13 13 12 12 12 12 12 12 12 12 11 11 11 11 11 11 11 11 11 11 11 10 10 10 10 10 10 10 9 9 9 9 9 9 9 9
15 15 15 16 16 16 16 16 16 16 16 15 15 15 15 15 15 15 15 14 14 14 14 14 14 14 13 13 13 13 13 13 13 12 12 12 12 12 12 12 12 11 11 11 11 11 11 11 11 10 11 11 10 10 10 10 10 10 10 10 10 9 9 9 9 9 9 9 9
16 16 16 16 16 16 16 16 15 15 15 15 15 15 15 15 15 15 15 14 14 14 14 14 14 13 13 13 13 13 13 12 12 12 12 12 12 12 12 12 11 11 11 11 11 11 11 11 10 10 10 10 10 10 10 10 10 10 10 10 9 9 9 9 10 9 9 9 9
16 16 16 16 15 15 15 15 15 15 15 15 15 15 15 15 15 15 15 15 14 14 14 14 13 13 13 13 13 13 12 12 12 12 12 12 12 12 12 11 11 11 11 11 11 11 11 11 10 10 10 10 10 10 10 10 10 10 10 10 10 10 10 10 10 9 9 9 9
15 15 15 15 15 15 15 15 15 15 15 15 15 15 15 15 15 15 15 14 14 14 14 14 13 13 13 13 13 13 12 12 12 12 12 12 12 12 12 11 11 11 11 11 11 11 11 10 10 10 10 10 10 10 10 10 10 10 10 10 10 10 10 10 10 9 9 9 9
15 15 15 15 15 15 15 15 15 15 15 15 15 15 15 15 15 14 14 14 14 14 14 14 13 13 13 13 13 13 12 12 12 12 12 12 12 12 11 11 11 11 11 11 11 11 10 10 10 10 10 10 10 10 10 10 10 10 10 10 10 10 10 10 9 9 9 9 9
15 15 15 15 15 15 15 15 15 15 15 15 15 15 15 15 14 14 14 14 14 14 14 13 13 13 13 13 13 13 12 12 12 12 12 12 12 12 12 11 11 11 11 11 11 11 10 10 10 10 10 10 10 10 10 10 10 10 10 10 10 10 10 10 9 9 9 9 9
15 15 15 15 15 15 15 14 14 14 14 14 15 14 14 14 14 14 14 14 14 13 13 13 13 13 13 13 13 12 12 12 12 12 12 12 12 12 12 12 12 11 11 11 11 11 10 10 10 10 10 10 10 10 10 10 10 10 10 10 10 10 10 10 9 9 9 9 9
15 15 15 15 15 15 14 14 14 14 15 15 15 14 14 14 14 14 14 14 14 13 13 13 13 13 13 13 13 12 12 12 12 12 12 12 12 12 12 12 12 11 11 11 11 11 11 10 10 10 10 10 10 10 10 10 10 10 10 10 10 10 10 10 9 9 9 9 9
15 15 15 15 15 14 14 14 14 14 15 15 15 14 14 14 14 14 14 14 14 13 13 13 13 13 13 13 12 12 12 12 12 12 12 12 12 12 12 12 12 12 11 11 11 11 11 11 11 11 10 10 10 10 10 10 10 10 10 10 10 10 10 9 9 9 9 9 9
15 15 15 15 14 14 14 14 14 14 14 15 15 14 14 14 14 14 14 14 14 13 13 13 13 13 13 13 12 12 12 12 12 12 12 12 11 11 11 12 12 12 12 12 11 11 11 11 11 11 11 11 10 10 10 10 10 10 10 10 10 10 10 9 9 9 9 9 9
15 15 15 15 14 14 14 14 14 14 14 14 14 14 14 14 14 14 14 14 14 13 13 13 13 13 13 13 12 12 12 12 12 12 11 11 11 11 11 12 12 12 12 12 12 11 11 11 11 11 11 11 10 10 10 10 10 10 10 10 10 10 9 9 9 9 9 9 8
15 15 15 15 14 14 14 14 14 14 14 14 14 14 14 14 14 14 14 14 14 13 13 13 13 13 13 12 12 12 12 12 11 11 11 11 11 11 11 12 12 12 12 12 12 12 11 11 11 11 11 10 10 10 10 10 10 10 10 10 10 10 9 9 9 9 8 8 8
14 15 15 14 14 14 14 14 14 14 14 14 14 14 14 14 14 14 14 14 14 13 13 13 13 13 13 12 12 12 12 12 11 11 11 11 11 11 11 12 12 12 12 12 12 12 11 11 11 11 10 10 10 10 10 10 10 10 10 10 10 9 9 9 9 8 8 8 8
15 15 15 14 14 14 15 15 14 14 14 14 14 14 14 14 14 14 14 14 14 13 13 13 13 13 13 12 12 12 12 12 11 11 11 11 11 11 11 11 11 12 12 12 12 12 11 11 11 11 10 10 10 10 10 10 10 10 10 10 9 9 9 9 9 8 8 8 8
15 15 15 15 15 15 15 15 15 14 14 14 14 14 14 14 14 14 14 14 14 14 13 13 13 13 13 13 12 12 12 12 12 12 11 11 11 11 11 11 11 11 11 12 12 11 11 11 11 10 10 10 10 10 10 10 10 10 10 9 9 9 9 9 8 8 8 8 8
15 15 15 15 15 15 15 15 15 15 14 14 14 14 14 14 14 14 14 14 14 14 13 13 13 13 13 12 12 12 12 12 12 12 12 11 11 11 11 11 11 11 11 11 11 11 11 11 11 10 10 10 10 10 10 10 10 10 10 9 9 9 9 9 8 8 8 8 8
15 15 15 15 15 15 15 15 15 14 14 14 14 14 14 14 14 14 14 14 14 14 13 13 13 13 13 13 12 12 12 12 12 12 12 12 11 11 11 11 11 11 11 11 11 11 11 11 11 10 10 10 10 10 10 10 10 10 9 9 9 9 9 8 8 8 8 8 8
14 14 14 14 14 14 14 14 14 14 14 14 14 14 14 14 14 14 14 14 14 13 13 13 13 13 13 13 12 12 12 12 12 12 12 12 11 11 11 11 11 11 11 11 11 11 11 11 10 10 10 10 10 10 10 10 10 9 9 9 9 9 9 8 8 8 8 8 8
14 14 14 14 14 14 14 14 14 14 14 14 14 14 14 14 14 14 14 14 13 13 13 13 13 13 13 13 12 12 12 12 12 12 12 12 11 11 11 11 11 11 11 11 11 11 11 11 10 10 10 10 10 10 10 10 9 9 9 9 9 9 9 8 8 8 8 8 8
14 14 14 14 14 14 14 14 14 14 14 14 14 14 14 14 14 14 13 13 13 13 13 13 13 13 12 12 12 12 12 12 12 12 12 11 11 11 11 11 11 11 11 11 11 11 11 11 10 10 10 10 10 10 10 9 9 9 9 9 9 9 9 8 8 8 8 8 8
13 13 13 14 14 14 14 14 14 14 14 14 14 14 14 14 14 13 13 13 13 13 13 13 12 12 12 12 12 12 12 12 12 12 12 11 11 11 11 11 11 11 11 11 11 11 11 11 10 10 10 10 10 10 10 9 9 9 9 9 9 9 9 8 8 8 8 8 8
13 13 13 13 13 13 14 14 14 14 14 14 14 14 14 14 14 13 13 13 13 13 13 12 12 12 12 12 12 11 11 11 11 12 11 11 11 11 11 11 11 11 11 11 11 11 11 10 10 10 10 10 10 10 9 9 9 9 9 9 9 9 9 8 8 8 8 8 8
13 13 13 13 13 13 13 14 14 14 14 14 14 14 14 14 13 13 13 13 13 13 12 12 12 12 12 11 11 11 11 11 11 11 11 11 11 10 10 10 11 11 11 11 11 11 11 10 10 10 10 10 10 9 9 9 9 9 9 9 9 9 9 9 8 8 8 8 8
13 13 13 13 13 13 13 13 14 14 14 14 14 14 14 13 13 13 13 13 13 12 12 12 12 12 11 11 11 11 11 11 11 11 11 10 10 10 10 10 10 11 11 11 11 11 11 10 10 10 10 10 9 9 9 9 9 9 9 9 9 9 9 9 8 8 8 8 8
13 13 13 13 13 13 13 13 13 14 14 14 14 14 13 13 13 13 13 13 13 12 12 12 12 12 11 11 11 11 11 11 11 11 11 10 10 10 10 10 10 10 11 11 11 11 11 10 10 10 10 10 9 9 9 9 9 9 9 9 9 9 9 8 8 8 8 8 8
13 13 13 13 13 13 13 13 13 13 13 13 13 13 13 13 13 13 13 13 13 12 12 12 12 12 12 12 11 11 11 11 11 11 11 10 10 10 10 10 10 10 10 11 11 11 11 10 10 10 10 10 9 9 9 9 9 9 9 9 9 9 8 8 8 8 8 8 8
12 13 13 13 13 13 13 13 13 13 13 13 13 13 13 13 13 13 13 13 13 12 12 12 12 12 12 12 11 11 11 11 11 11 11 11 10 10 10 10 10 10 10 10 11 11 11 10 10 10 10 10 9 9 9 9 9 9 9 8 8 8 8 8 7 7 7 8 8
12 12 12 13 13 13 13 13 13 13 13 13 13 13 13 13 13 13 13 13 12 12 12 12 12 12 12 11 11 11 11 11 11 11 11 11 11 10 10 10 10 10 10 10 10 10 10 10 10 10 10 9 9 9 9 9 9 9 8 8 8 8 7 7 7 7 7 7 7
12 12 12 12 12 13 13 13 13 13 13 13 13 13 13 13 13 13 12 12 12 12 12 12 12 12 12 12 12 12 11 11 11 11 11 11 11 10 10 10 10 10 10 10 10 10 10 10 10 10 10 9 9 9 9 9 9 9 8 8 8 8 8 7 7 7 7 7 7
12 12 12 12 12 12 12 12 13 13 13 13 13 13 13 13 12 12 12 12 12 12 12 12 12 12 12 12 12 12 12 11 11 11 11 11 11 10 10 10 10 10 10 10 10 10 10 10 10 10 10 9 9 9 9 9 9 9 8 8 8 8 8 8 7 7 7 7 7
12 12 12 12 12 12 12 12 12 12 12 12 12 12 12 12 12 12 12 12 12 12 12 12 12 12 12 12 11 11 11 11 11 11 11 11 11 10 10 10 10 10 10 10 10 10 10 10 10 10 10 9 9 9 9 9 9 9 9 9 9 8 8 8 8 8 7 7 7
12 12 11 11 12 12 12 12 12 12 12 12 12 12 12 12 12 12 12 12 12 12 12 12 12 12 11 11 11 11 11 11 11 11 11 11 11 10 10 10 10 10 10 10 10 10 10 10 10 10 10 9 9 9 9 9 9 8 8 8 8 8 8 8 8 8 8 8 7
12 11 11 11 11 11 11 12 12 12 12 12 12 12 12 12 12 12 12 12 12 12 12 12 12 11 11 11 11 11 11 11 11 11 11 11 11 10 10 10 10 10 10 10 10 10 10 10 10 10 9 9 9 9 9 9 8 8 8 8 8 8 8 8 8 8 8 8 8
12 11 11 11 11 11 11 11 11 11 12 12 12 12 12 12 12 12 12 12 12 12 12 11 11 11 11 11 11 11 11 11 11 11 11 11 10 10 10 10 10 10 10 10 10 10 9 9 9 9 9 9 9 9 9 9 9 8 8 8 8 8 8 8 8 8 8 8 8
11 11 11 11 11 11 11 11 11 11 11 11 11 11 11 12 12 12 12 12 12 11 11 11 11 11 11 11 11 11 11 11 11 11 10 10 10 10 10 10 10 10 10 10 10 9 9 9 9 9 9 9 9 9 9 9 8 8 8 8 8 8 8 7 8 8 8 8 8
11 11 11 10 10 10 11 11 11 11 11 11 11 11 11 11 11 11 11 11 11 11 11 11 11 11 11 11 11 11 11 11 10 10 10 10 10 10 10 10 10 10 10 9 9 9 9 9 9 9 9 9 9 9 9 8 8 8 8 8 8 8 8 8 8 8 8 8 8
10 10 10 10 10 10 10 10 10 10 11 11 11 11 11 11 11 11 11 11 11 11 11 11 11 11 11 11 11 11 11 10 10 10 10 10 10 10 10 10 10 10 9 9 9 9 9 9 9 9 9 9 8 8 8 8 8 8 8 8 8 8 8 8 8 8 8 8 8
Height
1483 1484 1484 1484 1485 1486 1486 1487 1487 1488 1488 1488 1488 1488 1489 1489 1489 1489 1490 1490 1491 1491 1491 1492 1492 1493 1494 1494 1495 1496 1496 1497 1498 1498 1499 1499 1500 1500 1501 1502 1502 1503 1503 1503 1504 1504 1505 1505 1505 1506 1506 1507 1507 1508 1508 1509 1509 1510 1510 1510 1511 1511 1511 1511 1511 1511 1511 1511 1511
1481 1482 1483 1484 1484 1484 1485 1485 1486 1486 1486 1487 1487 1487 1487 1488 1488 1488 1489 1489 1489 1490 1490 1490 1491 1492 1493 1493 1494 1494 1495 1496 1496 1497 1498 1498 1499 1499 1500 1500 1501 1501 1502 1502 1503 1503 1504 1504 1504 1504 1505 1505 1506 1507 1507 1508 1508 1509 1509 1509 1510 1510 1510 1510 1510 1510 1510 1510 1510
1480 1481 1482 1482 1483 1483 1483 1484 1484 1484 1485 1485 1486 1486 1486 1486 1487 1487 1487 1488 1488 1489 1489 1489 1490 1490 1491 1492 1493 1493 1494 1494 1495 1496 1496 1497 1497 1498 1499 1499 1500 1500 1501 1501 1501 1502 1502 1502 1503 1503 1504 1504 1505 1505 1506 1507 1507 1508 1508 1508 1509 1509 1509 1509 1509 1509 1509 1509 1509
1479 1479 1480 1480 1481 1481 1481 1482 1482 1483 1483 1484 1484 1485 1485 1485 1485 1486 1486 1486 1487 1487 1488 1488 1489 1489 1490 1490 1491 1492 1492 1493 1494 1494 1495 1495 1496 1496 1497 1498 1498 1499 1499 1500 1500 1500 1501 1501 1502 1502 1503 1504 1504 1504 1505 1505 1506 1507 1507 1507 1508 1508 1508 1508 1508 1508 1508 1508 1507
1478 1478 1478 1479 1479 1479 1480 1480 1481 1482 1482 1483 1484 1484 1484 1484 1484 1484 1485 1485 1485 1486 1486 1487 1487 1488 1489 1489 1490 1490 1491 1492 1493 1493 1494 1494 1494 1495 1496 1496 1497 1498 1498 1499 1499 1499 1500 1500 1501 1502 1502 1503 1503 1504 1504 1504 1505 1505 1506 1506 1506 1506 1507 1506 1507 1507 1507 1506 1506
1476 1476 1477 1477 1478 1478 1479 1479 1480 1480 1481 1482 1482 1482 1482 1482 1483 1483 1483 1483 1484 1484 1485 1486 1486 1487 1487 1488 1489 1489 1490 1490 1491 1492 1492 1493 1493 1494 1494 1495 1496 1496 1497 1497 1497 1498 1499 1499 1500 1501 1501 1502 1502 1503 1503 1504 1504 1504 1505 1505 1505 1505 1505 1505 1505 1505 1505 1505 1505
1474 1475 1475 1476 1477 1477 1478 1478 1479 1479 1480 1480 1480 1480 1480 1481 1481 1481 1482 1482 1483 1484 1484 1485 1485 1485 1486 1487 1487 1488 1489 1489 1490 1490 1491 1491 1492 1492 1493 1494 1494 1495 1495 1495 1496 1497 1498 1498 1499 1499 1500 1500 1501 1501 1502 1502 1503 1503 1504 1504 1504 1504 1504 1504 1504 1504 1504 1504 1504
1474 1474 1474 1475 1475 1476 1476 1477 1478 1478 1479 1479 1478 1478 1479 1479 1480 1480 1481 1481 1482 1482 1483 1484 1484 1484 1485 1485 1486 1486 1487 1488 1488 1489 1489 1490 1490 1491 1492 1492 1493 1493 1494 1494 1495 1495 1496 1497 1498 1498 1499 1499 1499 1500 1501 1501 1502 1502 1502 1503 1503 1503 1503 1503 1503 1503 1503 1503 1502
1472 1473 1473 1474 1474 1475 1475 1476 1476 1477 1477 1477 1477 1477 1478 1478 1479 1479 1479 1480 1480 1481 1482 1482 1483 1483 1484 1484 1484 1485 1486 1486 1487 1488 1488 1489 1489 1490 1490 1491 1491 1492 1492 1493 1494 1494 1495 1496 1496 1497 1497 1498 1499 1499 1499 1500 1500 1501 1501 1501 1502 1502 1502 1502 1502 1502 1502 1501 1501
1471 1471 1472 1473 1473 1474 1474 1475 1475 1475 1475 1475 1475 1476 1476 1477 1477 1478 1478 1478 1479 1480 1480 1480 1481 1482 1482 1483 1483 1484 1484 1485 1486 1487 1487 1487 1488 1488 1489 1489 1490 1490 1491 1492 1492 1493 1494 1494 1495 1495 1496 1497 1497 1498 1498 1499 1499 1499 1500 1500 1500 1501 1501 1501 1501 1501 1501 1500 1500
1469 1470 1471 1471 1472 1472 1473 1474 1474 1474 1474 1474 1474 1474 1475 1475 1476 1476 1477 1477 1478 1478 1478 1479 1480 1480 1481 1481 1482 1482 1483 1484 1485 1485 1486 1486 1486 1487 1487 1488 1489 1489 1489 1490 1491 1492 1493 1493 1494 1494 1495 1495 1496 1497 1497 1498 1498 1499 1499 1499 1499 1500 1500 1500 1500 1499 1499 1499 1499
1469 1469 1470 1470 1471 1471 1472 1472 1472 1472 1472 1472 1472 1473 1473 1474 1474 1475 1475 1476 1476 1476 1477 1478 1479 1479 1479 1480 1480 1481 1482 1483 1484 1484 1484 1485 1485 1486 1486 1487 1487 1488 1488 1489 1489 1490 1491 1492 1492 1493 1494 1494 1495 1496 1496 1497 1497 1497 1498 1498 1499 1499 1499 1499 1499 1499 1498 1498 1498
1468 1468 1469 1469 1469 1470 1470 1470 1470 1470 1470 1470 1471 1471 1472 1472 1473 1474 1474 1474 1474 1474 1475 1476 1477 1478 1478 1479 1479 1480 1481 1482 1482 1483 1483 1484 1484 1485 1485 1485 1486 1486 1487 1487 1488 1489 1489 1490 1490 1491 1492 1493 1494 1494 1495 1495 1496 1496 1497 1497 1498 1498 1498 1498 1498 1498 1497 1497 1497
1466 1467 1467 1468 1468 1469 1469 1469 1469 1469 1469 1469 1469 1469 1470 1471 1471 1472 1472 1472 1473 1473 1474 1475 1475 1476 1477 1477 1478 1479 1479 1480 1481 1482 1482 1483 1483 1484 1484 1484 1485 1485 1485 1486 1487 1487 1488 1488 1489 1489 1490 1491 1492 1493 1494 1494 1495 1495 1496 1496 1496 1497 1497 1497 1497 1497 1496 1496 1496
1465 1465 1466 1466 1467 1467 1467 1467 1467 1467 1467 1467 1467 1468 1469 1469 1469 1470 1470 1471 1471 1472 1472 1473 1474 1475 1475 1476 1477 1477 1478 1479 1479 1480 1481 1481 1482 1482 1483 1483 1484 1484 1484 1485 1485 1486 1486 1487 1488 1488 1489 1490 1491 1492 1493 1493 1494 1494 1494 1495 1495 1496 1496 1496 1496 1495 1495 1496 1496
1463 1464 1464 1465 1465 1465 1465 1465 1465 1465 1465 1465 1465 1466 1467 1468 1468 1469 1469 1469 1470 1470 1471 1472 1472 1473 1474 1475 1475 1476 1477 1477 1478 1479 1479 1480 1480 1481 1481 1482 1482 1483 1483 1484 1484 1485 1485 1486 1487 1487 1488 1489 1490 1491 1491 1492 1492 1493 1494 1494 1494 1494 1494 1494 1494 1494 1495 1495 1495
1461 1462 1462 1463 1463 1463 1463 1463 1463 1463 1463 1464 1464 1464 1465 1466 1466 1467 1467 1468 1468 1469 1469 1470 1471 1472 1473 1474 1474 1475 1475 1476 1476 1477 1478 1479 1479 1479 1480 1481 1481 1482 1482 1483 1483 1484 1484 1485 1486 1487 1487 1488 1489 1490 1490 1491 1491 1492 1493 1493 1493 1493 1494 1494 1494 1494 1494 1494 1494
1459 1459 1460 1461 1461 1461 1461 1461 1461 1462 1462 1462 1463 1463 1464 1464 1465 1465 1465 1466 1467 1467 1468 1469 1469 1471 1471 1472 1473 1473 1474 1474 1475 1475 1476 1477 1478 1478 1479 1479 1480 1481 1481 1482 1482 1483 1484 1484 1485 1486 1487 1487 1488 1489 1489 1489 1490 1491 1491 1492 1492 1492 1492 1493 1493 1493 1493 1493 1493
1457 1458 1458 1458 1459 1459 1459 1459 1460 1460 1460 1461 1461 1462 1462 1463 1463 1464 1464 1464 1465 1466 1466 1467 1468 1469 1470 1471 1471 1472 1472 1473 1474 1474 1475 1476 1476 1477 1478 1478 1479 1479 1480 1480 1481 1482 1483 1483 1484 1485 1486 1486 1487 1488 1488 1489 1489 1490 1490 1491 1491 1491 1491 1492 1492 1492 1492 1492 1492
1455 1455 1456 1456 1456 1457 1457 1458 1458 1459 1459 1459 1460 1460 1460 1461 1461 1462 1462 1463 1464 1464 1465 1466 1467 1467 1468 1469 1470 1470 1471 1472 1472 1473 1474 1474 1475 1475 1476 1477 1478 1478 1479 1479 1480 1481 1481 1482 1483 1484 1485 1485 1486 1487 1487 1488 1489 1489 1489 1490 1490 1490 1490 1491 1491 1491 1491 1491 1491
1453 1454 1454 1454 1455 1455 1456 1456 1457 1457 1458 1458 1459 1459 1459 1459 1460 1460 1461 1461 1462 1463 1464 1464 1465 1466 1467 1468 1469 1469 1470 1470 1471 1472 1472 1473 1473 1474 1475 1475 1476 1477 1477 1478 1479 1479 1480 1481 1482 1483 1484 1484 1485 1486 1486 1487 1488 1488 1488 1489 1489 1489 1489 1489 1490 1490 1490 1490 1490
1451 1452 1453 1453 1454 1454 1454 1455 1455 1456 1456 1456 1457 1457 1457 1458 1458 1459 1459 1460 1461 1461 1462 1463 1463 1464 1465 1466 1467 1468 1469 1469 1470 1470 1471 1471 1472 1473 1473 1474 1474 1475 1476 1477 1477 1478 1479 1480 1481 1482 1483 1483 1484 1485 1485 1486 1487 1487 1487 1488 1488 1488 1489 1489 1489 1489 1489 1489 1489
1450 1450 1451 1451 1452 1452 1453 1453 1454 1454 1454 1455 1455 1455 1456 1456 1456 1457 1458 1459 1459 1459 1460 1461 1462 1462 1463 1464 1466 1467 1468 1468 1469 1469 1469 1470 1470 1471 1472 1472 1473 1474 1474 1475 1476 1477 1478 1479 1479 1480 1481 1482 1483 1484 1484 1485 1486 1486 1486 1487 1487 1487 1488 1488 1488 1488 1488 1488 1488
1448 1449 1449 1449 1450 1450 1451 1451 1452 1452 1453 1453 1454 1454 1454 1454 1455 1456 1456 1457 1457 1458 1459 1459 1460 1461 1462 1463 1464 1465 1466 1467 1468 1468 1468 1469 1469 1470 1470 1471 1471 1472 1473 1474 1474 1475 1476 1478 1479 1479 1480 1481 1482 1483 1484 1484 1484 1485 1485 1486 1486 1486 1486 1486 1487 1487 1487 1487 1487
1446 1447 1447 1448 1448 1449 1449 1450 1450 1450 1451 1451 1452 1452 1453 1453 1454 1454 1455 1455 1456 1456 1457 1458 1459 1460 1461 1462 1463 1464 1465 1466 1466 1467 1467 1468 1468 1468 1469 1469 1470 1470 1471 1472 1473 1474 1475 1476 1477 1479 1479 1480 1481 1482 1483 1483 1484 1484 1484 1485 1485 1485 1485 1485 1485 1486 1486 1486 1486
1444 1444 1445 1445 1446 1447 1447 1448 1448 1449 1449 1450 1451 1451 1451 1452 1453 1453 1454 1454 1454 1455 1456 1457 1458 1459 1459 1461 1462 1463 1464 1464 1465 1466 1466 1466 1467 1467 1468 1468 1469 1469 1470 1471 1472 1473 1474 1475 1476 1478 1479 1479 1480 1481 1481 1482 1482 1483 1483 1484 1484 1484 1484 1484 1484 1485 1485 1485 1485
1443 1443 1443 1444 1444 1445 1445 1446 1447 1447 1448 1449 1449 1450 1450 1451 1451 1452 1452 1453 1453 1454 1455 1455 1456 1457 1458 1459 1461 1462 1462 1463 1464 1464 1465 1465 1466 1466 1466 1467 1467 1468 1469 1470 1471 1472 1473 1474 1475 1476 1477 1478 1479 1479 1480 1480 1481 1481 1482 1482 1483 1483 1483 1483 1483 1484 1484 1484 1484
1441 1442 1442 1442 1443 1443 1444 1444 1445 1446 1446 1447 1448 1449 1449 1450 1450 1450 1451 1451 1452 1453 1453 1454 1455 1456 1457 1458 1459 1460 1461 1462 1462 1463 1464 1464 1464 1464 1465 1465 1466 1467 1468 1469 1469 1470 1472 1473 1474 1475 1476 1477 1477 1478 1479 1479 1480 1480 1480 1481 1481 1481 1482 1482 1482 1483 1483 1483 1483
1440 1440 1441 1441 1441 1442 1443 1443 1444 1444 1445 1446 1447 1447 1448 1449 1449 1449 1450 1450 1451 1451 1452 1453 1454 1455 1456 1457 1458 1459 1459 1460 1461 1462 1462 1463 1463 1463 1464 1464 1464 1465 1466 1467 1468 1469 1470 1471 1473 1474 1474 1475 1476 1477 1477 1478 1479 1479 1479 1479 1480 1480 1480 1481 1481 1481 1482 1482 1482
1439 1439 1439 1440 1440 1441 1441 1442 1443 1443 1444 1445 1445 1446 1447 1447 1447 1448 1448 1449 1449 1450 1451 1452 1452 1453 1454 1455 1456 1457 1458 1459 1460 1460 1461 1461 1461 1462 1462 1463 1463 1464 1465 1465 1466 1467 1469 1470 1471 1472 1473 1474 1474 1475 1476 1477 1477 1478 1478 1479 1479 1479 1479 1479 1480 1480 1480 1481 1481
1438 1438 1438 1439 1439 1439 1440 1441 1441 1442 1443 1444 1444 1445 1445 1445 1446 1446 1447 1448 1448 1449 1450 1450 1451 1452 1453 1454 1455 1456 1457 1458 1458 1459 1459 1459 1459 1460 1460 1461 1462 1463 1463 1464 1465 1466 1467 1468 1469 1470 1471 1472 1473 1474 1474 1475 1476 1477 1477 1478 1478 1478 1479 1479 1479 1479 1480 1480 1480
1436 1437 1437 1437 1438 1438 1439 1439 1440 1441 1442 1442 1443 1443 1444 1444 1445 1445 1446 1447 1447 1448 1449 1449 1450 1451 1452 1453 1454 1455 1455 1456 1457 1457 1457 1458 1458 1459 1459 1460 1460 1461 1462 1462 1463 1464 1465 1467 1468 1469 1469 1470 1471 1472 1473 1474 1475 1475 1476 1477 1477 1478 1478 1478 1479 1479 1479 1479 1479
1435 1435 1436 1436 1437 1437 1438 1439 1439 1440 1440 1441 1441 1442 1443 1443 1444 1444 1445 1446 1446 1447 1448 1449 1449 1450 1451 1452 1453 1454 1454 1454 1455 1455 1456 1456 1456 1457 1458 1459 1459 1459 1460 1461 1462 1463 1464 1465 1466 1467 1468 1469 1469 1470 1471 1472 1473 1474 1475 1476 1476 1477 1477 1478 1478 1478 1479 1479 1479
1434 1434 1434 1435 1436 1436 1437 1437 1438 1439 1439 1439 1440 1441 1441 1442 1443 1443 1444 1444 1445 1446 1447 1448 1449 1449 1450 1451 1451 1452 1452 1453 1453 1454 1454 1454 1455 1456 1456 1457 1458 1458 1459 1459 1460 1461 1462 1464 1464 1465 1466 1467 1468 1469 1470 1471 1472 1473 1473 1474 1475 1475 1476 1476 1477 1477 1477 1478 1478
1433 1433 1434 1434 1434 1435 1436 1436 1437 1438 1438 1439 1439 1440 1440 1441 1442 1442 1443 1444 1445 1446 1446 1447 1448 1449 1449 1449 1450 1450 1450 1451 1451 1452 1452 1453 1453 1454 1455 1456 1456 1457 1457 1458 1459 1459 1461 1462 1463 1464 1464 1465 1466 1468 1469 1469 1470 1471 1472 1472 1473 1474 1474 1475 1475 1476 1476 1476 1476
1432 1432 1433 1433 1434 1434 1435 1435 1436 1436 1437 1438 1438 1439 1439 1440 1441 1442 1443 1443 1444 1445 1446 1446 1447 1447 1448 1448 1448 1448 1449 1449 1450 1450 1451 1451 1452 1453 1454 1454 1455 1455 1456 1456 1457 1458 1459 1460 1461 1462 1463 1464 1465 1466 1467 1468 1469 1469 1470 1471 1471 1472 1473 1473 1474 1474 1474 1475 1475
1431 1431 1432 1432 1433 1433 1434 1434 1435 1436 1436 1437 1437 1438 1439 1439 1440 1441 1442 1443 1444 1444 1445 1445 1445 1446 1446 1446 1446 1447 1448 1448 1449 1449 1449 1449 1450 1451 1452 1453 1454 1454 1454 1455 1455 1456 1458 1459 1459 1460 1461 1462 1464 1464 1465 1466 1467 1468 1469 1469 1470 1471 1471 1472 1472 1473 1473 1474 1474
1430 1430 1431 1431 1432 1433 1433 1434 1434 1435 1435 1436 1437 1438 1438 1439 1440 1440 1441 1442 1443 1443 1444 1444 1444 1444 1445 1445 1446 1446 1447 1447 1447 1447 1447 1448 1449 1450 1451 1452 1452 1453 1453 1453 1454 1455 1456 1457 1458 1459 1460 1461 1462 1463 1464 1465 1466 1467 1468 1468 1469 1469 1470 1470 1471 1471 1472 1472 1473
1429 1430 1430 1431 1431 1432 1433 1433 1434 1434 1435 1436 1436 1437 1438 1438 1439 1440 1440 1441 1442 1442 1443 1443 1444 1444 1444 1445 1445 1445 1445 1445 1445 1445 1445 1446 1447 1449 1450 1450 1451 1451 1451 1452 1453 1454 1454 1456 1457 1458 1459 1460 1461 1462 1463 1464 1464 1465 1466 1467 1468 1468 1469 1469 1469 1469 1470 1471 1471
1429 1429 1429 1430 1431 1431 1432 1433 1433 1434 1434 1435 1436 1436 1437 1438 1439 1439 1440 1440 1441 1441 1442 1442 1443 1443 1444 1444 1444 1444 1444 1443 1443 1443 1444 1445 1446 1448 1449 1449 1449 1449 1449 1450 1451 1452 1453 1454 1455 1456 1458 1459 1460 1461 1462 1463 1464 1464 1465 1466 1466 1467 1467 1467 1468 1468 1469 1469 1470
1429 1429 1429 1429 1430 1431 1432 1432 1433 1433 1434 1434 1435 1435 1436 1437 1437 1438 1438 1439 1439 1440 1440 1441 1441 1441 1442 1442 1442 1442 1441 1441 1441 1442 1443 1444 1445 1446 1447 1448 1448 1448 1448 1449 1450 1451 1452 1453 1454 1455 1456 1457 1458 1459 1460 1461 1462 1463 1463 1464 1465 1465 1465 1466 1466 1467 1467 1468 1468
Wind_Speed
34 34 33 32 31 31 30 29 29 28 29 29 29 30 30 30 30 29 28 27 27 27 27 27 26 25 25 25 25 25 25 25 25 26 26 26 26 26 25 25 24 23 23 23 23 23 24 24 24 23 22 21 21 20 20 20 20 20 20 20 20 19 19 19 18 19 19 19 19
34 34 33 33 32 31 31 30 30 29 30 30 30 31 31 31 31 30 29 29 28 28 27 27 27 26 26 25 25 24 24 24 25 25 26 26 26 26 26 26 25 25 24 24 24 24 25 25 25 25 24 22 21 21 20 19 20 20 20 20 19 19 19 19 19 19 19 19 19
34 34 34 33 33 32 32 31 31 30 30 31 31 31 32 32 31 31 30 29 29 28 28 28 28 27 26 26 25 24 24 24 24 25 25 26 26 26 26 26 26 26 25 25 25 26 26 27 26 26 25 23 22 21 20 20 20 20 20 20 19 19 19 19 19 19 19 19 19
34 34 34 34 33 33 32 32 31 31 31 31 31 32 32 32 32 31 31 30 30 29 29 29 28 27 27 26 25 25 24 23 23 24 25 25 26 26 27 27 27 27 27 27 27 27 27 28 27 27 26 24 23 22 21 20 20 20 19 19 19 19 19 19 19 19 19 19 19
34 34 34 34 33 33 32 32 32 32 32 32 32 32 32 32 32 32 31 31 31 30 29 29 28 28 27 27 26 25 24 23 23 23 24 25 25 26 26 27 28 28 28 28 28 28 28 28 28 28 27 25 24 23 22 21 20 20 20 19 19 19 19 19 19 19 19 19 18
34 34 34 34 34 33 33 33 33 33 33 33 33 33 33 33 32 32 32 32 31 30 29 29 29 29 28 27 27 26 25 24 23 23 24 24 25 25 26 27 28 29 29 29 30 30 29 29 29 29 28 27 26 24 23 22 21 20 20 20 20 20 20 19 19 19 19 19 18
35 35 35 35 34 34 34 34 34 34 34 34 34 34 34 33 33 32 32 31 31 30 30 30 30 29 29 28 27 26 25 24 24 23 24 24 24 25 26 27 29 30 30 31 31 31 30 30 30 30 29 28 27 25 24 23 22 21 21 20 20 20 20 19 19 19 19 18 17
35 35 35 35 35 35 35 35 35 35 35 35 35 35 34 33 33 33 32 32 32 31 31 30 30 30 29 28 28 27 26 25 24 23 23 24 24 25 26 27 29 30 31 31 32 32 31 31 31 31 30 29 28 27 25 24 23 22 21 21 21 20 20 19 19 19 18 17 17
36 36 36 36 36 36 35 35 35 35 36 36 36 35 35 34 33 33 33 33 33 32 31 31 30 30 29 29 28 27 26 25 24 24 23 24 24 25 26 27 29 30 31 32 32 32 32 32 32 32 32 31 29 28 26 25 24 23 22 21 21 20 20 20 19 18 18 17 16
37 37 37 37 37 36 36 36 36 36 36 36 36 36 35 35 34 34 34 33 33 32 32 31 30 30 30 30 29 28 27 25 24 24 24 24 25 25 26 27 28 30 31 32 32 33 33 33 34 34 33 32 30 29 27 26 24 23 22 21 20 20 20 20 19 18 18 17 16
38 38 38 37 37 37 37 36 36 37 37 37 37 37 36 36 35 35 34 33 33 33 32 31 30 30 30 30 29 28 27 26 25 24 24 24 25 25 26 27 27 29 30 31 32 33 34 34 35 35 34 33 32 30 29 27 25 24 23 21 20 20 21 20 20 19 18 17 16
38 38 38 38 38 37 37 37 37 37 37 38 37 37 37 36 36 35 34 34 34 34 33 31 31 30 30 30 29 28 27 26 25 25 25 25 25 25 26 26 27 28 29 30 31 32 33 34 35 35 34 34 33 31 30 28 27 25 23 22 21 21 21 20 20 19 18 17 16
38 38 38 38 38 38 38 38 38 38 38 38 38 38 37 36 36 35 35 35 35 35 33 32 31 30 30 30 29 28 28 27 26 26 25 25 25 26 26 27 27 28 28 29 30 31 32 33 34 34 34 34 33 32 31 29 27 26 24 22 21 21 20 20 19 18 18 17 16
38 38 38 38 38 38 38 39 39 39 39 39 38 38 37 37 36 36 36 36 36 35 34 32 31 30 30 29 29 28 28 27 27 26 26 26 26 26 26 27 27 27 28 28 29 30 31 32 32 33 33 33 32 32 30 29 28 26 25 23 21 20 19 19 19 18 17 16 15
38 38 38 38 38 38 39 39 39 39 39 39 39 38 37 37 36 36 36 36 36 35 34 33 32 31 30 29 29 28 28 28 27 27 27 26 26 26 26 26 27 27 27 28 28 29 30 31 31 31 31 32 31 31 30 29 28 26 24 22 20 19 19 19 18 17 16 16 15
38 38 38 37 38 38 38 39 39 39 39 39 39 38 38 37 37 36 36 36 36 35 35 34 32 31 30 29 29 29 28 28 28 28 27 27 27 27 26 26 26 26 27 27 27 28 29 29 30 30 31 31 30 30 29 28 27 26 23 20 18 18 18 18 18 17 16 15 15
38 38 38 37 37 38 38 38 39 39 39 39 38 38 37 37 37 37 36 36 36 36 35 34 33 31 30 29 29 29 29 29 29 29 28 28 27 27 26 26 26 26 26 26 26 27 27 28 29 29 29 29 29 28 28 28 27 24 21 18 18 18 19 18 17 16 16 15 15
38 38 38 37 37 37 38 38 38 38 38 38 38 38 37 37 37 37 36 36 36 36 35 34 33 31 30 30 29 29 29 29 29 29 28 28 27 27 26 26 25 25 26 26 26 26 26 27 27 27 27 27 26 27 27 27 25 22 19 17 18 18 18 18 17 16 16 15 15
38 38 38 38 38 38 37 37 37 37 37 37 37 37 37 37 37 37 36 36 36 36 35 34 33 32 31 30 29 29 29 29 29 29 28 28 27 27 26 26 25 25 26 26 26 26 26 26 26 26 26 25 25 25 26 26 23 20 18 18 18 19 18 17 17 16 16 15 15
38 38 38 38 38 38 37 37 37 37 37 37 37 37 37 37 37 37 36 36 36 35 34 34 33 32 31 30 30 29 29 28 28 28 28 27 27 27 26 26 26 26 26 26 26 26 26 26 25 25 24 24 24 25 25 24 21 19 18 19 19 18 17 17 16 16 16 15 14
37 37 38 38 38 38 37 37 37 36 36 36 36 37 37 37 37 37 37 36 35 35 34 34 33 32 32 31 30 29 28 27 27 27 27 27 27 27 26 26 26 26 26 26 26 26 26 25 24 23 23 22 23 24 24 22 20 19 19 19 18 18 17 17 17 16 16 15 14
35 36 37 37 37 37 37 37 36 36 35 35 36 36 36 37 37 37 36 36 35 35 34 34 33 33 32 31 30 28 27 26 26 26 27 27 27 27 26 26 26 26 26 26 26 26 25 24 23 22 22 22 23 23 22 20 20 19 19 19 18 17 17 17 16 16 15 14 13
33 34 35 35 36 36 36 36 36 35 35 35 35 35 36 36 36 36 36 36 35 35 34 34 33 33 32 31 29 28 27 26 26 26 26 27 27 27 27 27 27 27 27 26 26 25 25 24 22 21 21 22 22 22 21 20 20 19 19 18 18 17 17 17 16 16 15 14 13
29 30 32 33 34 34 35 35 35 34 34 34 34 35 35 35 35 35 35 35 35 35 34 34 33 32 32 31 29 28 27 27 26 26 26 26 27 27 27 27 27 27 27 26 26 25 24 23 22 21 20 21 22 21 21 20 20 19 19 18 18 17 17 17 16 15 14 13 12
26 27 28 30 31 32 33 33 34 34 33 33 33 34 34 34 35 35 35 35 35 34 34 33 33 32 31 31 30 29 28 27 26 26 26 26 27 27 27 28 28 28 27 27 27 26 24 23 21 20 20 21 21 21 21 20 20 20 19 18 18 18 17 17 16 15 14 13 12
24 25 26 27 28 30 31 32 32 32 32 32 32 32 33 34 34 34 34 34 34 34 33 33 32 32 31 30 30 29 28 27 26 26 26 26 27 27 27 28 28 28 28 27 27 26 25 23 21 20 20 20 21 21 20 20 20 20 19 19 18 18 17 17 16 15 14 13 12
23 23 24 25 26 27 28 30 30 30 30 30 30 31 32 32 33 33 34 33 33 33 33 32 32 31 31 30 29 29 28 28 27 26 26 26 26 26 27 27 28 28 28 27 27 26 25 24 22 20 20 20 20 20 20 20 20 20 20 19 19 18 17 16 15 14 14 13 12
22 22 22 23 24 25 26 27 27 28 28 28 29 30 30 31 32 33 33 33 33 33 32 32 31 31 30 29 29 29 28 28 27 26 26 25 25 25 26 26 27 27 27 28 28 27 26 24 22 20 20 19 19 19 19 20 20 20 20 19 19 18 17 16 15 15 14 13 13
21 21 21 22 22 23 24 24 25 25 26 26 27 28 29 30 31 32 32 33 33 32 32 32 31 31 30 30 29 29 28 28 27 27 26 25 25 25 25 25 26 27 27 28 28 28 27 24 22 20 19 19 19 19 19 20 20 20 20 19 19 18 17 16 16 15 15 14 13
20 21 21 21 22 22 22 22 22 23 23 24 25 26 28 30 31 32 32 32 32 32 32 32 31 31 30 30 29 28 28 28 27 27 27 26 25 25 24 24 25 26 28 29 29 29 27 25 22 21 20 19 19 19 19 20 20 20 20 19 18 18 17 16 16 16 15 14 13
20 20 20 21 21 21 21 21 21 21 21 22 24 26 27 29 30 31 32 32 32 32 32 31 31 31 30 29 28 28 27 27 27 28 28 27 26 25 24 23 24 26 28 29 30 30 28 26 23 21 20 19 19 19 20 20 20 20 19 19 18 17 16 16 16 15 15 14 13
19 19 19 20 20 21 21 20 20 20 20 22 23 25 27 28 29 30 31 31 31 31 31 31 30 30 29 28 28 28 28 28 28 28 29 28 27 25 24 23 24 26 28 30 31 30 29 26 24 22 21 20 20 20 20 20 20 20 19 18 16 16 15 15 15 15 14 13 12
18 18 19 19 19 20 20 20 20 20 20 21 22 24 26 27 28 29 30 30 31 31 31 30 30 29 29 28 28 28 28 29 29 29 29 29 28 27 25 24 24 26 28 30 31 31 29 27 24 23 21 20 20 20 20 20 20 20 19 17 16 15 15 15 15 14 13 12 12
18 18 18 18 18 19 19 19 19 19 20 21 22 23 25 26 28 29 29 30 30 30 29 29 29 29 28 29 29 29 29 29 29 29 30 30 29 28 26 25 25 26 29 31 31 31 30 27 25 23 22 21 20 20 20 21 21 20 19 17 16 15 15 15 15 14 14 13 12
16 17 17 18 18 18 18 18 18 19 19 20 21 23 24 26 27 28 28 28 28 28 28 28 28 28 29 29 30 31 31 30 30 30 30 30 30 29 27 26 25 27 29 31 32 31 30 28 26 24 22 21 20 20 21 22 22 21 19 17 16 16 16 15 15 14 14 13 13
15 16 17 17 17 17 17 17 17 18 19 20 21 22 23 25 26 26 27 27 27 27 27 28 28 29 30 31 31 31 31 30 29 29 30 31 31 29 27 25 25 26 29 31 32 31 30 28 26 24 23 21 21 21 22 23 22 21 19 18 17 16 16 15 15 14 14 14 13
14 15 16 16 16 16 16 16 16 17 18 19 20 21 22 23 24 25 25 26 26 26 27 27 28 30 30 31 30 30 29 28 29 29 30 31 31 29 26 24 24 26 28 31 31 31 29 28 26 25 23 21 21 22 23 23 23 21 20 18 17 16 16 15 15 15 15 14 13
13 14 15 16 16 16 16 16 16 17 17 18 19 20 21 22 23 23 24 24 25 25 26 27 28 28 29 29 28 28 28 29 30 31 32 32 31 28 25 23 24 26 28 30 31 30 29 28 26 24 23 22 22 23 24 24 23 21 20 18 17 17 16 15 15 15 15 15 14
11 13 14 15 15 15 15 15 16 16 17 17 18 19 20 21 22 22 23 23 23 24 24 24 25 25 26 27 28 29 30 31 32 33 33 32 30 27 24 23 24 26 29 30 30 30 29 27 26 24 22 22 22 23 23 23 23 21 20 19 18 17 16 16 16 16 15 15 14
10 11 13 13 14 14 14 14 15 15 15 16 17 18 19 20 21 21 22 22 22 21 21 21 21 21 22 24 27 29 31 33 34 34 33 31 29 26 23 23 25 27 29 30 30 29 28 27 25 24 22 22 22 23 23 23 23 22 21 20 18 17 16 16 16 16 16 16 15
8 10 11 12 12 12 13 13 13 13 14 15 16 17 18 20 21 22 22 23 23 23 22 21 20 19 19 20 22 27 31 35 35 34 32 29 27 24 23 24 26 28 30 30 30 29 28 27 25 23 22 22 22 23 23 24 23 23 22 20 19 17 16 16 16 17 17 16 16
Wind_Direction
232 233 234 236 237 239 241 243 245 246 248 249 251 253 254 256 257 258 260 261 262 263 264 265 265 265 264 262 260 259 257 254 252 250 249 247 246 245 245 245 246 247 247 247 246 244 244 245 246 246 247 247 248 248 249 250 251 252 254 255 256 258 261 264 269 274 277 280 282
232 234 236 237 239 241 242 244 246 247 248 250 251 253 254 256 258 259 261 263 264 266 267 267 267 266 265 264 263 262 260 258 255 253 251 250 249 247 246 246 247 247 247 247 246 244 244 245 246 247 247 248 248 249 249 250 251 252 253 255 257 259 262 265 270 274 278 280 282
233 235 237 238 240 242 243 245 247 248 249 250 251 253 254 256 258 260 262 264 265 266 267 267 267 267 267 266 266 264 263 261 258 256 254 252 251 249 247 247 247 247 247 247 246 245 245 246 247 248 249 250 250 250 251 252 252 253 254 256 258 260 262 266 270 274 277 280 282
235 236 238 239 241 243 245 247 249 250 251 252 252 253 255 256 258 260 262 264 264 264 265 266 267 267 267 267 266 266 265 263 260 257 255 254 252 250 249 248 247 247 247 246 246 246 246 247 247 249 250 251 252 253 253 254 254 255 256 258 259 261 263 265 270 274 278 280 281
236 238 239 241 243 245 248 249 251 253 254 254 254 254 256 257 259 260 262 262 263 263 264 265 266 266 267 267 267 266 265 264 261 258 256 255 253 252 250 249 248 247 247 247 246 246 246 247 247 248 250 252 253 254 254 256 256 257 258 259 260 261 263 266 270 275 279 280 280
238 240 242 244 246 247 249 250 252 253 255 255 255 256 257 258 259 260 261 262 263 264 265 265 265 266 266 265 265 265 264 263 261 259 257 255 254 252 251 249 248 248 247 247 247 247 247 247 247 248 249 251 252 253 254 255 256 257 258 259 260 262 264 267 273 277 279 279 278
241 243 244 245 247 248 250 251 252 254 255 256 256 257 258 260 261 262 263 264 265 265 264 264 264 264 264 264 264 263 263 262 260 258 257 255 254 253 251 250 248 248 247 247 247 247 247 247 247 248 249 250 251 252 253 254 255 256 257 259 261 263 265 269 274 277 278 277 275
244 245 246 248 249 250 251 253 253 254 255 256 257 259 260 261 262 264 265 265 264 264 264 264 264 264 264 264 264 263 262 261 260 258 256 255 254 253 252 250 248 248 247 247 247 247 247 247 248 248 249 250 251 252 253 254 255 255 257 259 262 264 268 271 274 276 275 273 271
245 247 248 249 250 251 253 254 255 255 256 257 259 261 262 263 264 264 264 264 264 264 264 264 264 265 265 265 264 263 262 261 259 258 256 255 254 253 251 250 249 248 248 248 248 248 247 248 248 249 250 251 251 252 253 254 255 255 257 259 263 266 270 272 273 273 272 270 268
246 248 249 250 251 252 253 254 255 256 257 259 260 262 263 264 264 264 264 264 265 264 264 264 264 264 264 264 264 263 262 261 259 258 256 255 254 252 251 250 250 249 248 248 248 248 248 248 248 249 250 251 251 252 253 254 255 255 257 259 264 268 271 272 272 271 269 267 266
248 249 250 251 252 253 254 254 255 256 258 259 260 261 262 263 263 264 264 264 264 263 263 264 264 264 264 264 263 263 263 261 260 258 256 255 253 252 251 251 251 250 250 249 249 248 248 248 249 249 250 251 251 252 253 254 255 255 257 260 266 269 270 270 271 269 267 265 264
250 251 252 252 253 254 254 255 256 257 258 259 260 261 261 262 263 263 263 263 262 263 263 264 263 263 264 264 263 263 262 261 260 258 256 255 254 253 252 251 251 251 251 250 250 249 249 249 249 250 251 251 252 252 253 254 255 256 258 261 265 267 268 270 270 268 265 263 262
251 252 252 253 254 254 254 255 256 257 258 259 260 261 261 262 263 263 262 262 262 262 263 263 263 263 263 263 263 263 262 261 260 258 257 255 254 253 252 251 251 251 251 251 250 250 250 250 250 251 251 252 253 253 254 255 256 257 259 260 262 265 268 270 270 267 263 261 260
253 253 253 253 253 254 254 255 256 257 258 259 260 261 261 261 262 262 261 261 262 262 262 262 262 262 262 263 262 262 261 261 259 258 257 256 254 253 252 251 251 251 251 251 251 250 250 251 251 252 252 253 254 254 255 256 258 258 259 259 260 264 269 271 268 264 260 258 258
254 254 254 254 254 254 254 255 256 257 258 259 260 260 260 260 261 261 261 261 261 261 261 260 261 261 262 262 262 261 261 260 259 258 257 256 255 254 253 252 251 251 251 251 251 251 251 251 252 253 253 254 254 256 257 258 259 259 258 259 262 266 269 268 264 261 257 256 258
254 254 254 254 254 254 254 255 256 257 257 258 259 260 259 259 260 260 260 260 260 259 259 259 259 260 261 260 260 260 259 258 258 257 256 256 255 255 254 253 252 252 251 251 251 251 252 252 252 253 254 254 256 257 258 258 258 258 258 259 264 267 267 264 260 256 255 255 258
254 254 254 254 254 254 254 255 256 256 257 258 258 259 258 258 259 259 259 259 259 258 258 258 259 259 259 259 258 258 257 257 256 256 256 256 256 257 257 256 255 253 253 252 252 252 252 252 252 252 253 254 256 257 257 257 257 256 257 260 263 264 262 259 255 253 253 255 260
253 254 254 254 254 254 254 255 255 256 257 257 258 258 258 258 258 259 259 259 259 258 258 258 259 259 258 257 257 256 256 256 257 257 258 258 258 259 259 258 257 256 254 253 253 253 252 252 252 252 252 253 254 255 256 255 254 254 255 258 260 259 257 255 252 251 252 256 262
253 253 253 253 253 254 254 255 255 256 256 257 258 258 258 258 258 259 259 259 259 259 258 258 259 258 257 257 256 256 256 257 259 260 261 261 261 261 260 259 258 256 255 254 253 253 253 253 253 252 252 252 253 253 253 252 251 252 253 256 256 255 253 251 250 250 253 258 263
252 252 252 252 253 253 254 255 255 256 256 257 257 257 258 258 258 258 258 259 259 259 259 259 258 257 257 256 256 256 257 259 261 262 263 263 262 262 261 259 258 256 255 253 252 252 252 252 252 252 252 251 252 251 251 249 249 250 252 253 253 251 249 249 249 251 255 259 262
251 251 251 252 252 253 254 254 255 256 256 256 256 256 257 257 257 258 258 259 260 259 259 258 258 257 256 255 255 256 257 260 262 263 264 264 264 263 261 260 258 256 254 253 252 251 251 251 251 251 250 250 250 250 249 247 247 249 251 251 250 249 248 248 249 252 256 259 260
250 250 251 251 252 252 253 254 254 255 255 255 255 255 255 256 256 257 258 259 259 258 258 258 258 257 256 256 256 256 258 260 262 263 264 264 264 263 261 259 257 255 253 252 251 250 250 250 249 249 248 248 248 248 246 246 247 249 250 249 248 248 248 249 251 254 256 258 256
249 249 250 250 251 251 252 253 253 254 254 253 253 253 254 254 255 255 256 256 256 257 257 257 257 257 257 257 256 257 257 259 261 263 263 263 263 261 259 257 256 254 253 251 250 249 249 249 248 247 246 246 246 245 244 244 246 247 247 247 247 248 249 250 252 254 255 254 251
249 249 249 249 250 250 250 251 252 252 252 252 252 252 252 252 253 253 253 254 254 255 255 255 256 255 255 255 255 254 255 256 259 261 262 262 261 260 258 257 255 254 252 251 250 249 249 248 247 246 245 244 243 243 242 244 245 245 245 245 246 248 250 252 253 254 253 251 247
249 249 249 249 249 249 249 249 250 250 251 251 251 251 251 251 251 251 251 252 253 253 253 254 253 253 253 252 252 252 252 254 257 259 261 261 261 260 258 257 255 254 252 251 249 249 248 248 247 246 244 243 242 242 242 243 243 243 242 243 245 247 250 251 252 252 251 247 243
250 249 249 249 248 248 248 248 249 250 250 250 250 250 250 249 250 250 250 251 251 252 252 252 251 251 251 250 250 250 251 252 255 257 260 260 261 260 259 258 256 254 252 251 249 248 247 246 245 244 244 243 242 243 243 243 242 241 241 242 244 247 249 251 251 250 247 244 240
251 250 250 249 248 248 248 248 249 250 250 250 250 249 249 248 248 248 249 249 250 250 250 250 250 250 250 249 249 249 250 251 253 256 258 260 261 260 259 258 257 255 253 251 250 248 247 245 243 242 242 242 243 244 244 243 242 241 240 241 243 246 248 249 249 247 244 240 237
252 251 250 249 249 249 249 249 249 250 250 250 250 249 248 248 247 247 247 248 248 248 248 248 248 249 249 249 249 250 251 253 255 257 260 261 261 260 259 258 257 255 254 252 250 248 246 244 242 241 241 241 242 243 243 242 241 240 240 241 242 244 246 247 246 243 239 235 233
252 252 251 250 249 249 249 250 251 251 251 251 250 249 247 246 246 246 246 246 246 246 247 247 248 248 248 248 249 251 252 254 256 259 261 262 261 260 259 257 256 255 254 252 250 248 246 243 240 239 240 241 241 240 240 239 239 238 238 239 241 242 244 244 242 239 235 232 231
251 252 251 250 249 249 249 250 251 252 252 251 250 248 246 245 245 244 245 245 246 247 248 249 249 249 249 250 251 252 254 255 258 259 260 260 260 260 259 258 256 254 253 252 251 248 246 242 239 238 238 239 239 238 237 237 237 236 237 238 239 241 243 244 241 237 232 230 230
250 250 250 249 248 248 248 250 251 252 252 251 249 247 246 244 244 244 245 246 247 248 249 250 250 251 252 253 254 255 257 259 260 259 259 258 259 259 260 259 257 255 253 251 250 249 246 242 238 236 236 236 237 236 235 234 234 234 235 238 241 244 247 246 242 237 232 230 231
248 249 249 248 248 248 248 248 249 250 251 250 249 247 246 245 245 245 246 247 247 248 248 249 251 252 254 255 256 258 260 261 261 261 259 258 257 259 260 261 259 256 253 251 250 248 245 241 237 235 234 234 235 235 234 232 231 232 234 238 243 248 249 247 243 237 233 231 233
247 247 247 247 247 247 247 247 248 249 249 249 248 247 246 245 245 245 245 246 246 247 249 251 253 255 257 258 259 261 262 263 263 261 259 256 255 256 258 260 260 258 255 252 250 248 245 241 237 234 233 233 233 233 232 230 228 229 232 237 242 247 248 245 241 236 233 232 234
246 246 246 246 246 246 246 246 247 248 248 248 248 247 246 245 244 244 244 246 247 249 252 255 257 260 261 263 264 264 263 264 263 261 258 255 253 253 254 257 259 259 256 254 251 248 245 240 236 234 232 232 231 231 229 227 226 226 229 234 240 244 245 243 238 234 232 232 233
246 246 245 245 245 245 245 246 247 247 248 248 248 247 246 245 245 245 246 247 249 251 253 256 258 260 262 262 262 261 260 260 261 261 259 256 252 250 251 255 259 261 259 255 252 248 244 240 236 233 231 229 229 228 226 224 224 224 227 231 237 241 243 241 238 234 232 232 232
246 246 245 245 244 244 245 246 247 248 248 248 248 247 246 246 246 246 247 249 250 252 253 256 258 258 258 257 257 257 257 259 261 262 261 257 252 249 250 255 261 263 262 258 253 248 244 239 235 232 229 226 225 224 224 223 223 224 226 230 234 238 240 239 237 235 234 234 234
245 245 245 245 245 245 245 247 248 250 250 251 250 249 248 248 247 248 248 250 251 253 256 258 258 259 259 259 259 261 263 265 266 265 263 258 253 249 250 256 263 267 265 260 254 249 244 240 235 231 227 224 223 222 223 222 223 224 226 230 233 237 237 236 235 235 235 235 235
244 244 244 244 245 245 246 248 250 251 253 254 254 253 252 251 251 251 252 253 255 257 259 261 262 264 265 266 267 268 269 270 270 267 263 258 252 249 251 259 267 270 267 262 255 248 243 239 235 230 225 222 222 222 223 223 223 225 227 231 234 236 236 234 233 233 234 235 235
244 244 244 244 245 245 246 248 250 252 254 256 256 256 255 255 255 256 257 258 260 262 264 267 270 272 273 273 271 270 270 270 269 267 262 255 250 248 253 263 271 273 269 263 255 248 243 239 234 228 223 222 222 223 224 224 224 226 229 232 235 236 235 233 232 231 232 233 233
246 245 245 245 245 246 247 249 252 254 256 257 258 257 257 258 259 260 261 261 261 263 265 268 271 273 274 274 273 271 269 267 265 263 258 252 248 249 257 268 274 274 270 263 255 248 242 237 231 226 222 221 222 224 225 225 226 228 230 233 236 236 236 234 233 231 231 231 231
248 247 247 247 247 247 248 252 256 259 261 262 261 259 257 256 256 256 256 255 255 254 255 257 258 260 264 268 273 273 269 264 260 257 253 249 248 253 263 273 276 274 268 261 254 246 240 234 228 223 221 221 223 224 225 226 227 229 231 234 236 237 237 236 235 233 231 230 230